This is the latest recevied weather packets stored in our database for station/object EFHKFMI. If no packets are shown the sender has not sent any weather packets the latest 10 day(s).
| Time | Temp. | Humidity | Pressure | Rain* | Wind** | Luminosity | Snow |
|---|---|---|---|---|---|---|---|
| 1777662418 | 13.89° C | 41% | 1015.5 hPa | 0 mm | - | - | - |
| 1777661218 | 14.44° C | 40% | 1015.5 hPa | 0 mm | - | - | - |
| 1777660018 | 15° C | 44% | 1015.6 hPa | 0 mm | - | - | - |
| 1777658818 | 16.11° C | 44% | 1015.6 hPa | 0 mm | - | - | - |
| 1777657617 | 16.67° C | 42% | 1015.4 hPa | 0 mm | - | - | - |
| 1777656418 | 18.33° C | 38% | 1015.3 hPa | 0 mm | - | - | - |
| 1777655218 | 19.44° C | 35% | 1015.2 hPa | 0 mm | - | - | - |
| 1777654017 | 19.44° C | 38% | 1015.3 hPa | 0 mm | - | - | - |
| 1777652817 | 21.11° C | 24% | 1015.4 hPa | 0 mm | - | - | - |
| 1777651617 | 21.11° C | 23% | 1015.5 hPa | 0 mm | - | - | - |
| 1777650417 | 21.11° C | 24% | 1015.7 hPa | 0 mm | - | - | - |
| 1777649217 | 21.11° C | 24% | 1015.9 hPa | 0 mm | - | - | - |
| 1777648017 | 21.11° C | 24% | 1016 hPa | 0 mm | - | - | - |
| 1777646817 | 21.11° C | 24% | 1016.2 hPa | 0 mm | - | - | - |
| 1777645617 | 21.11° C | 25% | 1016.4 hPa | 0 mm | - | - | - |
| 1777644417 | 20.56° C | 25% | 1016.7 hPa | 0 mm | - | - | - |
| 1777643217 | 20.56° C | 25% | 1016.9 hPa | 0 mm | - | - | - |
| 1777642017 | 20.56° C | 24% | 1017.1 hPa | 0 mm | - | - | - |
| 1777640816 | 20.56° C | 28% | 1017.3 hPa | 0 mm | - | - | - |
| 1777639617 | 20.56° C | 28% | 1017.6 hPa | 0 mm | - | - | - |
| 1777638416 | 20° C | 30% | 1017.9 hPa | 0 mm | - | - | - |
| 1777637216 | 19.44° C | 31% | 1018.2 hPa | 0 mm | - | - | - |
| 1777636016 | 20° C | 32% | 1018.3 hPa | 0 mm | - | - | - |
| 1777634816 | 18.89° C | 32% | 1018.5 hPa | 0 mm | - | - | - |
| 1777633616 | 18.33° C | 35% | 1018.7 hPa | 0 mm | - | - | - |
* Rain latest hour (hover to see other rain measurements)
** Current wind speed in m/s (hover to see current wind gust speed)